x

Buoy A01 - Mass. Bay/stellwagen (44029) Wave Buoy

5:04 - Sun 20th Aug 2017 All times are EDT. -4 hours from GMT.

  • Sig Wave height 1.6ft
  • Peak Period 6s
  • Wind
    9mph, 13mph gusts
  • Sea Temp 67°f
  • Aire Temp 73°f
  • Sea Pressure 1014.8mb
  • Buoy A01 - Mass. Bay/stellwagen
  • Buoy A01 - Mass. Bay/stellwagen

More Historic Weather Station data

Upgrade to MSW Pro to gain access to the past 30 days of data for over 8000 Wavebouys and Weather Stations around the globe.

Join

Comparision Forecast

View Surf forecast
   
dom 08/20 5:04 1.6ft 6s 9 13 mph 1014.8mb 67f 73f
4:04 1.6ft 6s 9 9 mph 1014.2mb 66f 73f
3:04 1.6ft 8s 7 9 mph 1014mb 67f 72f
2:04 1.6ft 8s 4 4 mph 1013.8mb 67f 72f
1:04 2ft 8s 4 4 mph 1013.4mb 67f 73f
12:04 1.6ft 6s 4 9 mph 1013mb 67f 71f
11:04 2ft 5s 7 9 mph 1012.6mb 67f 71f
10:04 2ft 8s 7 9 mph 1012.2mb 67f 70f
9:04 2ft 6s 7 9 mph 1012.2mb 67f 68f
8:04 2ft 6s 9 11 mph 1012mb 66f 67f
7:04 2ft 6s 9 9 mph 1011.3mb 66f 67f
6:04 2ft 6s 9 9 mph 1010.7mb 66f 67f
5:04 1.6ft 6s 7 7 mph 1010.2mb 66f 67f
4:04 1.6ft 6s 4 4 mph 1009.7mb 66f 67f
3:04 1.6ft 6s 4 7 mph 1009.6mb 66f 67f
2:04 1.3ft 8s 4 4 mph 1009.6mb 66f 67f
12:04 1.6ft 5s 7 7 mph 1009.7mb 67f 68f
sáb 08/19 11:04 1.6ft 5s 7 7 mph 1009.3mb 67f 67f
10:04 2ft 6s 4 4 mph 1009.1mb 67f 67f
9:04 1.6ft 6s 7 9 mph 1008.8mb 67f 67f
8:04 1.6ft 8s 7 9 mph 1008.4mb 67f 67f
7:04 2ft 6s 7 9 mph 1008.2mb 67f 68f
6:04 1.6ft 5s 7 9 mph 1008mb 67f 67f
5:04 1.6ft 6s 11 13 mph 1008.2mb 67f 66f
4:04 1.6ft 8s 9 11 mph 1008.3mb 67f 66f
3:04 1.6ft 4s 9 11 mph 1008.3mb 67f 65f
2:04 1.6ft 5s 7 9 mph 1008.8mb 66f 65f
1:04 1.6ft 6s 4 4 mph 1009.1mb 66f 64f
12:04 1.6ft 4s 2 4 mph 1009mb 66f 64f
11:04 2.5ft 5s 7 9 mph 1009.2mb 66f 64f
10:04 2.5ft 4s 11 11 mph 1008.8mb 66f 63f
9:04 3ft 6s 11 22 mph 1008.5mb 65f 63f
8:04 3ft 5s 16 18 mph 1008.3mb 65f 63f
7:04 2.5ft 6s 13 16 mph 1008.1mb 65f 63f
6:04 2.5ft 6s 13 16 mph 1007.5mb 65f 64f
5:04 3ft 5s 13 16 mph 1007.1mb 66f 64f
4:04 2.5ft 6s 9 11 mph 1006.9mb 66f 65f
3:04 2.5ft 6s 9 11 mph 1006.8mb 66f 69f
2:04 2.5ft 6s 11 11 mph 1007.2mb 66f 69f
1:04 2.5ft 5s 9 9 mph 1007.3mb 66f 69f
12:04 3ft 5s 11 13 mph 1008.7mb 66f 69f
vie 08/18 11:04 3ft 5s 16 18 mph 1008.4mb 66f 69f
10:04 3ft 5s 18 20 mph 1008.5mb 66f 69f
9:04 2.5ft 5s 18 22 mph 1008.7mb 66f 69f
8:04 3ft 5s 18 20 mph 1008.8mb 66f 70f
7:04 2.5ft 5s 16 18 mph 1009.3mb 67f 70f
6:04 3ft 5s 16 18 mph 1009.3mb 66f 70f
5:04 2.5ft 4s 11 16 mph 1009.8mb 66f 69f
4:04 2.5ft 4s 13 16 mph 1010.2mb 66f 70f
3:04 3.5ft 4s 18 22 mph 1010.5mb 66f 70f
2:04 2.5ft 4s 20 25 mph 1010.8mb 67f 70f
1:04 2.5ft 4s 18 22 mph 1011.8mb 67f 70f
12:04 2.5ft 3s 20 22 mph 1012.2mb 67f 69f
11:04 2ft 8s 18 20 mph 1012.4mb 67f 69f
10:04 1.6ft 8s 13 16 mph 1012.9mb 67f 69f
9:04 1ft 3s 11 13 mph 1013.6mb 67f 68f
8:04 1ft 8s 11 13 mph 1014.1mb 67f 68f
7:04 1.3ft 8s 9 11 mph 1013.8mb 67f 68f
6:04 1.3ft 11s 9 11 mph 1013.8mb 67f 67f
5:04 1.6ft 11s 9 11 mph 1013.8mb 66f 67f
4:04 1ft 3s 7 9 mph 1014.3mb 66f 67f
3:04 1ft 3s 9 9 mph 1014.6mb 66f 67f
2:04 1.6ft 8s 9 11 mph 1014.9mb 67f 67f
1:04 1ft 3s 11 13 mph 1015mb 67f 68f
12:04 1.3ft 4s 9 11 mph 1015.1mb 67f 69f
jue 08/17 11:04 1ft 3s 9 11 mph 1014.9mb 67f 69f
10:04 1.3ft 3s 11 13 mph 1014.6mb 67f 70f
9:04 1.3ft 3s 11 13 mph 1014.5mb 67f 70f
8:04 1.3ft 3s 13 16 mph 1014mb 68f 70f
7:04 1.6ft 3s 11 16 mph 1013.8mb 68f 71f
6:04 1ft 2s 13 16 mph 1013.8mb 68f 71f
5:04 2ft 11s 13 18 mph 1013.9mb 68f 71f
4:04 1.6ft 11s 11 13 mph 1014.3mb 68f 71f
3:04 1.6ft 9s 11 13 mph 1014.7mb 68f 71f
2:04 2ft 11s 11 13 mph 1015.4mb 68f 70f
1:04 1.3ft 10s 13 16 mph 1016mb 68f 69f
12:04 1.6ft 11s 13 13 mph 1016.3mb 68f 68f
11:04 1.6ft 11s 13 13 mph 1016.9mb 68f 67f
10:04 1ft 2s 11 11 mph 1017.1mb 68f 66f
9:04 2ft 11s 11 11 mph 1017mb 67f 65f
8:04 1ft 5s 11 13 mph 1017mb 67f 65f
7:04 1ft 3s 9 11 mph 1016.6mb 67f 64f
6:04 1.3ft 6s 11 13 mph 1016.2mb 68f 64f
5:04 1ft 3s 11 13 mph 1015.9mb 68f 64f
4:04 1.3ft 6s 11 13 mph 1016.1mb 67f 64f
3:04 0.7ft  -  11 13 mph 1015.8mb 67f 65f
2:04 1.3ft 10s 9 13 mph 1015.7mb 67f 67f
1:04 1.6ft 11s 9 11 mph 1015.6mb 67f 67f
12:04 0.7ft  -  9 11 mph 1015.6mb 67f 67f